Tracking 31027 objects as of 19-Jul-2025
HD Live streaming from Space Station
objects crossing your sky now

STARLINK-3080

Track STARLINK-3080 now!
10-day predictions
STARLINK-3080 is classified as:


NORAD ID: 49161
Int'l Code: 2021-082AH
Perigee: 577.0 km
Apogee: 581.4 km
Inclination: 70.0 °
Period: 96.1 minutes
Semi major axis: 6950 km
RCS: Unknown
Launch date: September 14, 2021
Source: United States (US)
Launch site: AIR FORCE WESTERN TEST RANGE (AFWTR)
Your satellite tracking list
SKOLTECH-B2
Track 1 satellite(s)




NASA's NSSDC Master Catalog

Two Line Element Set (TLE):
1 49161U 21082AH  25199.88716337 -.00000319  00000-0 -18950-4 0  9995
2 49161  70.0001 163.9326 0003154 267.9490  92.1308 14.98329172212038
Source of the keplerian elements: AFSPC